User: anonymous   Login
Location: ??????
(38.3184°N, 23.6932°E)
Time: 00:31:22
(UTC+00:00)
Language:

Spot 2 - Orbit

View from above orbital plane
View from above orbital plane
View from above satellite
View from above satellite

Ground track
Ground track

The orbit data is extracted from the following two-line orbital elements,

1 20436U 90005A   22026.53290809  .00000304  00000-0  56349-4 0  9995
2 20436  98.7294  61.8178 0145274  60.9152 300.6509 14.66815590679902
Epoch (UTC): 26 January 2022 12:47:23
Eccentricity: 0.0145274
inclination: 98.7294°
perigee height: 569 km
apogee height: 773 km
right ascension of ascending node: 61.8178°
argument of perigee: 60.9152°
revolutions per day: 14.66815590
mean anomaly at epoch: 300.6509°
orbit number at epoch: 67990

The dashed part of the orbit path shows where the satellite is in the earth's shadow,  

DLR